SCP
0 0 0 0 0 0 0 0 0 0 0 0 0 0 0 0 0 0 0 0 0 0 0 0 0 0 0 0 0 0 0 0 0 0 0 0 0 0 0 0 0 0 0
0 0 0 0 0 0 0 0 0 -0 -0 0 0 0 0 0 0 0 0 0 0 0 0 0 0 0 0 0 0 0 0 0 0 0 0 0 0 0 0 0 0 0 0
0 0 0 0 -0 -0 -0 0 0 0 0 0 0 0 0 0 0 0 0 0 0 0 0 0 0 0 0 0 0 0 0 0 0 0 0 0 0 0 0 0 0 0 0
0 0 0 0 0 0 0 0 0 0 0 0 0 0 0 0 0 0 0 0 0 0 0 0 0 0 0 0 0 0 0 0 0 0 0 0 0 0 0 0 0 0 0
-0 0 0 0 0 0 0 0 0 0 0 0 0 0 0 0 0 0 0 0 0 0 0 0 0 0 0 0 0 0 0 0 0 0 0 0 0 0 0 0 0 0 0
0 0 0 0 0 0 0 0 0 0 0 0 0 0 0 0 0 0 0 0 0 0 0 0 0 0 0 0 0 0 0 0 0 0 0 0 0 0 0 0 0 0 0
0 0 0 0 0 0 0 0 0 0 0 0 0 0 0 0 0 0 0 0 0 0 0 0 0 0 0 0 0 0 0 0 0 0 0 0 0 0 0 0 0 0 0
0 0 0 0 0 0 0 0 0 0 0 0 0 0 0 0 0 0 0 0 0 0 0 0 0 0 0 0 0 0 0 0 0 0 0 0 0 0 0 0 0 0 0
0 0 0 0 0 0 0 0 0 0 0 0 0 0 0 0 0 0 0 0 0 0 0 0 0 0 0 0 0 0 0 0 0 0 0 0 0 0 0 0 0 0 0
0 0 0 0 0 0 0 0 0 0 0 0 0 0 0 0 0 0 0 0 0 0 0 0 0 0 0 0 0 0 0 0 0 0 0 0 0 0 0 0 0 0 0
0 0 0 0 0 0 0 0 0 0 0 0 0 0 0 0 0 0 0 0 0 0 0 0 0 0 0 0 0 0 0 0 0 0 0 0 0 0 0 0 0 0 0
0 0 0 0 0 0 0 0 0 0 0 0 0 0 0 0 0 0 0 0 0 0 0 0 0 0 0 0 0 0 0 0 0 0 0 0 0 0 0 0 0 0 0
0 0 0 0 0 0 0 0 0 0 0 0 0 0 0 0 0 0 0 0 0 0 0 0 0 0 0 0 0 0 0 0 0 0 0 0 0 0 0 0 0 0 0
0 0 0 0 0 0 0 0 0 0 0 0 0 0 0 0 0 0 0 0 0 0 0 0 0 0 0 0 0 0 0 0 0 0 0 0 0 0 0 0 0 0 0
0 0 0 0 0 0 0 0 0 0 0 0 0 0 0 0 0 0 0 0 0 0 0 0 0 0 0 0 0 0 0 0 0 0 0 0 0 0 0 0 0 0 0
0 0 0 0 0 0 0 0 0 0 0 0 0 0 0 0 0 0 0 0 0 0 0 0 0 0 0 0 0 0 0 0 0 0 0 0 0 0 0 0 0 0 0
0 0 0 0 0 0 0 0 0 0 0 0 0 0 0 0 0 0 0 0 0 0 0 0 0 0 0 0 0 0 0 0 0 0 0 0 0 0 0 0 0 0 0
0 0 0 0 0 0 0 0 0 0 0 0 0 0 0 0 0 0 0 0 0 0 0 0 0 0 0 0 0 0 0 0 0 0 0 0 0 0 0 0 0 0 0
0 0 0 0 0 0 0 0 0 0 0 0 0 0 0 0 0 0 0 0 0 0 0 0 0 0 0 0 0 0 0 0 0 0 0 0 0 0 0 0 0 0 0
0 0 0 0 0 0 0 0 0 0 0 0 0 0 0 0 0 0 0 0 0 0 0 0 0 0 0 0 0 0 0 0 0 0 0 0 0 0 0 0 0 0 0
0 0 0 0 0 0 0 0 0 0 0 0 0 0 0 0 0 0 0 0 0 0 0 0 0 0 0 0 0 0 0 0 0 0 0 0 0 0 0 0 0 0 0
0 0 0 0 0 0 0 0 0 0 0 0 0 0 0 0 0 0 0 0 0 0 0 0 0 0 0 0 0 0 0 0 0 0 0 0 0 0 0 0 0 0 0
0 0 0 0 0 0 0 0 0 0 0 0 0 0 0 0 0 0 0 0 0 0 0 0 0 0 0 0 0 0 0 0 0 0 0 0 0 0 0 0 0 0 0
0 0 0 0 0 0 0 0 0 0 0 0 0 0 0 0 0 0 0 0 0 0 0 0 0 0 0 0 0 0 0 0 0 0 0 0 0 0 0 0 0 0 0
0 0 0 0 0 0 0 0 0 0 0 0 0 0 0 0 0 0 0 0 0 0 0 0 0 0 0 0 0 0 0 0 0 0 0 0 0 0 0 0 0 0 0
0 0 0 0 0 0 0 0 0 0 0 0 0 0 0 0 0 0 0 0 0 0 0 0 0 0 0 0 0 0 0 0 0 0 0 0 0 0 -0 -0 -0 0 -0
Wind_Speed_500mb
24 16 14 12 15 16 24 25 21 11 6 9 26 11 8 18 20 18 29 31 35 42 38 44 46 49 43 42 40 40 43 47 55 60 62 65 60 53 55 41 41 51 53
45 36 32 26 23 23 24 27 23 21 14 13 3 10 15 16 19 25 31 34 37 36 37 40 41 34 33 41 45 48 47 51 55 55 56 30 42 25 32 46 51 49 56
45 40 37 33 34 35 33 31 29 24 20 18 15 19 18 17 23 29 33 36 37 34 36 34 31 39 58 62 62 56 53 54 49 46 31 19 13 46 43 49 57 47 55
41 44 38 37 34 35 28 23 20 13 9 11 15 20 21 21 25 30 35 34 32 33 35 40 58 69 69 60 44 50 54 55 52 40 33 26 31 29 38 41 60 67 68
41 43 37 30 30 28 22 17 11 8 10 15 19 26 28 26 27 31 32 30 38 49 57 59 60 53 46 48 46 50 52 51 43 42 44 45 39 28 27 50 48 50 60
37 40 32 24 19 18 14 8 3 7 14 17 19 22 22 22 23 28 33 41 46 45 55 53 50 47 38 35 41 46 46 42 38 34 30 31 34 37 32 34 41 47 61
39 37 31 24 18 13 6 4 2 5 6 13 16 15 18 23 27 31 35 44 47 49 48 45 44 28 25 23 28 38 44 38 33 29 29 34 37 35 34 37 43 51 67
35 30 28 23 18 16 14 6 3 11 17 14 14 18 25 33 38 41 48 54 55 51 48 43 39 45 47 55 28 27 36 32 34 33 35 31 30 32 35 40 46 62 58
33 34 30 26 22 16 7 4 15 17 14 19 22 30 40 46 49 56 62 64 62 52 42 31 35 43 45 16 25 31 31 30 30 34 35 39 37 33 34 38 41 50 66
41 38 33 26 19 7 5 16 18 18 19 25 34 45 51 55 60 65 67 63 54 38 32 27 43 37 44 29 21 24 28 32 35 37 41 42 41 39 44 52 56 58 64
46 38 29 19 11 3 8 22 14 12 22 34 43 49 51 60 60 64 65 58 38 30 36 44 49 31 31 18 21 28 31 37 40 47 47 42 44 54 62 65 62 59 59
40 30 20 11 7 4 6 8 8 20 30 39 44 46 52 58 63 63 59 49 32 29 32 36 47 38 18 19 26 34 36 44 47 46 45 52 62 68 63 55 56 57 57
33 24 17 16 13 4 3 10 19 26 32 40 41 46 53 60 61 61 56 43 26 27 40 42 27 12 17 25 30 37 45 47 50 52 58 66 66 63 56 54 55 59 50
27 22 21 22 11 4 26 16 22 27 33 37 39 45 53 60 64 61 53 41 34 35 26 21 17 18 26 30 37 46 48 49 50 59 64 65 62 59 56 55 56 49 55
27 24 22 17 13 24 15 20 26 30 34 38 39 44 53 62 60 57 52 39 31 25 24 20 19 26 34 34 42 47 49 53 62 64 63 61 60 52 52 53 55 60 57
27 25 23 19 22 20 20 25 27 32 37 42 44 45 56 56 55 57 45 29 21 24 25 21 27 35 38 38 41 49 54 60 65 63 62 62 58 56 50 60 51 43 47
28 29 28 19 21 25 24 26 31 37 43 47 41 47 54 52 59 48 37 26 21 26 30 32 38 40 30 39 47 50 58 60 56 56 57 56 51 48 45 40 37 42 40
29 30 26 23 27 26 25 29 35 42 46 42 43 51 47 54 57 45 33 29 28 33 35 35 27 25 41 45 48 56 54 51 52 49 43 44 42 38 34 46 47 40 37
26 23 21 24 27 27 28 34 41 44 39 44 48 45 44 55 51 40 32 32 33 36 31 25 27 44 36 44 52 50 48 49 47 40 38 38 37 36 39 44 46 41 35
28 25 25 31 30 26 31 39 43 41 47 42 45 45 45 50 45 34 30 26 32 29 30 31 31 30 38 45 44 41 43 45 44 39 38 34 36 35 37 38 43 37 40
30 26 30 28 24 28 36 40 44 45 42 43 47 46 45 47 41 35 31 33 33 28 25 25 27 34 39 39 37 38 40 41 43 40 41 36 35 37 34 33 32 35 40
28 28 25 20 25 31 39 44 45 44 46 50 53 50 48 44 38 36 33 34 29 25 21 25 31 35 34 34 35 35 36 36 39 38 37 36 39 41 38 31 28 31 33
26 18 15 22 29 35 41 46 44 48 52 54 53 51 44 38 35 31 31 31 27 22 25 35 36 31 28 30 33 32 33 36 38 36 35 35 39 39 35 28 27 30 30
12 18 22 30 35 37 40 42 46 52 56 53 48 46 36 31 33 26 28 24 19 26 36 37 31 23 24 27 31 31 32 35 37 37 33 31 34 35 34 32 26 27 27
18 20 27 33 37 40 42 45 51 57 54 50 46 37 32 35 40 27 20 19 24 33 36 27 23 22 22 23 27 29 31 34 36 34 33 29 33 36 37 36 31 28 24
17 23 28 34 38 42 45 49 53 46 48 49 40 36 33 31 39 25 23 23 28 37 29 24 24 23 21 21 24 25 28 31 33 31 32 33 35 38 39 40 38 34 27
Wind_Direction_500mb
120 131 152 178 184 182 201 216 243 283 114 119 146 135 349 325 293 309 321 321 322 321 311 312 312 314 305 301 301 302 303 304 308 312 305 305 305 296 294 287 291 292 292
104 108 110 109 110 99 84 81 77 80 95 143 182 331 342 354 328 315 306 306 312 308 304 302 299 302 312 318 316 316 322 327 327 325 324 312 304 275 275 285 296 295 295
120 114 107 94 87 85 82 90 100 101 89 75 43 11 1 335 305 297 299 300 295 291 292 290 297 316 324 322 321 319 321 324 327 322 324 314 290 304 306 293 293 296 294
120 116 108 107 107 106 100 93 90 77 37 359 342 334 322 302 295 294 293 291 291 293 299 315 318 314 312 313 311 322 327 326 323 315 305 296 298 311 306 295 296 301 296
131 118 118 120 119 114 113 109 91 39 6 345 332 331 327 312 307 306 298 302 319 321 320 320 312 317 315 308 306 315 321 321 320 316 313 310 309 311 297 307 314 308 309
139 131 134 132 138 128 118 102 57 348 339 331 323 323 326 336 346 339 326 317 317 320 324 322 314 307 299 319 329 325 322 322 325 324 318 320 327 323 324 313 317 314 311
156 156 155 149 153 140 158 198 224 278 318 319 327 351 350 348 338 327 316 312 320 317 317 304 290 282 288 308 320 329 331 329 337 336 329 327 325 323 324 323 325 320 312
179 173 166 159 168 160 151 153 280 315 319 329 342 336 330 328 328 324 319 315 313 314 312 304 281 291 293 298 331 321 318 323 333 332 328 325 326 322 321 319 317 311 306
176 167 159 159 155 153 153 294 314 322 337 347 340 340 341 335 331 326 322 317 314 313 303 273 261 286 296 299 307 313 319 315 322 322 321 317 317 302 299 300 295 303 305
167 164 159 157 156 168 325 328 326 328 337 338 333 335 336 333 332 330 327 326 322 303 270 248 278 288 304 309 314 307 316 311 312 318 318 311 307 296 298 300 299 298 294
170 164 161 160 169 225 316 313 309 327 333 335 338 340 341 342 339 335 334 336 332 294 275 299 316 312 310 316 313 314 312 315 315 320 315 304 301 305 306 305 302 299 298
160 161 163 181 204 291 288 324 330 329 333 339 342 344 343 344 342 340 339 341 337 313 304 299 309 304 285 315 316 322 317 320 317 315 309 308 306 307 309 306 303 303 304
163 171 190 203 196 213 289 315 318 326 332 339 343 345 342 342 341 341 339 334 319 298 303 299 293 273 304 311 317 322 321 319 317 313 307 306 309 310 308 303 301 306 304
180 196 197 195 203 244 299 293 314 321 330 338 339 337 338 341 340 338 335 322 297 292 297 282 273 286 306 303 312 322 317 311 306 305 304 305 306 305 303 304 305 303 301
199 209 206 211 272 289 264 298 310 320 327 330 329 330 336 337 336 336 331 319 307 298 298 289 273 294 312 295 312 310 306 307 308 306 303 303 303 302 294 300 297 300 298
214 217 216 236 267 244 282 298 310 317 320 323 325 325 329 332 334 331 327 318 324 319 291 279 298 301 298 305 309 309 310 311 308 308 308 306 305 304 299 297 300 295 291
220 223 225 252 260 261 287 300 306 311 315 315 312 320 325 330 332 325 323 311 296 326 282 280 300 294 293 311 311 311 312 313 313 311 309 310 310 308 310 316 317 302 301
227 223 236 259 259 269 286 291 299 307 305 301 311 318 322 329 330 320 312 302 290 303 305 306 292 298 313 309 313 314 318 320 321 322 321 320 320 326 326 326 316 308 304
233 239 251 257 246 264 273 289 302 300 298 306 312 316 319 326 327 319 314 310 292 292 298 299 299 306 307 314 318 322 326 329 332 331 330 328 326 330 329 319 321 320 318
224 235 249 237 256 267 285 297 302 300 307 308 310 311 315 321 320 316 307 302 310 302 294 301 303 303 313 319 325 329 334 335 339 340 337 332 330 338 330 323 318 318 321
227 233 238 243 264 286 298 302 301 308 307 308 309 308 307 312 309 309 304 302 301 297 292 288 298 310 317 324 330 337 342 344 344 340 338 335 338 334 328 322 325 321 314
211 230 234 260 291 304 303 304 309 312 312 310 309 306 303 297 296 299 300 304 296 293 277 293 307 314 321 328 336 342 345 351 345 344 345 344 341 339 336 329 328 322 325
205 222 259 292 304 305 306 309 312 312 312 311 309 309 300 285 280 291 300 302 289 272 291 305 308 312 319 327 337 339 348 354 350 348 349 348 346 344 342 337 335 336 339
261 259 289 301 307 310 311 309 312 312 313 312 307 311 298 285 283 286 302 295 280 298 306 305 300 305 315 324 335 337 351 351 354 353 350 348 351 350 348 344 337 340 346
246 284 299 307 315 316 314 311 311 313 312 312 307 304 294 283 284 271 286 286 300 318 312 294 290 300 308 318 330 339 347 347 350 353 354 353 355 359 1 1 355 354 353
281 293 306 313 317 317 317 316 315 311 311 315 315 312 290 279 279 254 252 282 305 325 316 293 288 292 298 311 327 338 342 344 346 349 354 356 357 359 1 2 3 2 3
Wind_Speed_850mb
24 16 14 12 15 16 24 25 21 11 6 9 26 11 8 18 20 18 29 31 35 42 38 44 46 49 43 42 40 40 43 47 55 60 62 65 60 53 55 41 41 51 53
45 36 32 26 23 23 24 27 23 21 14 13 3 10 15 16 19 25 31 34 37 36 37 40 41 34 33 41 45 48 47 51 55 55 56 30 42 25 32 46 51 49 56
45 40 37 33 34 35 33 31 29 24 20 18 15 19 18 17 23 29 33 36 37 34 36 34 31 39 58 62 62 56 53 54 49 46 31 19 13 46 43 49 57 47 55
41 44 38 37 34 35 28 23 20 13 9 11 15 20 21 21 25 30 35 34 32 33 35 40 58 69 69 60 44 50 54 55 52 40 33 26 31 29 38 41 60 67 68
41 43 37 30 30 28 22 17 11 8 10 15 19 26 28 26 27 31 32 30 38 49 57 59 60 53 46 48 46 50 52 51 43 42 44 45 39 28 27 50 48 50 60
37 40 32 24 19 18 14 8 3 7 14 17 19 22 22 22 23 28 33 41 46 45 55 53 50 47 38 35 41 46 46 42 38 34 30 31 34 37 32 34 41 47 61
39 37 31 24 18 13 6 4 2 5 6 13 16 15 18 23 27 31 35 44 47 49 48 45 44 28 25 23 28 38 44 38 33 29 29 34 37 35 34 37 43 51 67
35 30 28 23 18 16 14 6 3 11 17 14 14 18 25 33 38 41 48 54 55 51 48 43 39 45 47 55 28 27 36 32 34 33 35 31 30 32 35 40 46 62 58
33 34 30 26 22 16 7 4 15 17 14 19 22 30 40 46 49 56 62 64 62 52 42 31 35 43 45 16 25 31 31 30 30 34 35 39 37 33 34 38 41 50 66
41 38 33 26 19 7 5 16 18 18 19 25 34 45 51 55 60 65 67 63 54 38 32 27 43 37 44 29 21 24 28 32 35 37 41 42 41 39 44 52 56 58 64
46 38 29 19 11 3 8 22 14 12 22 34 43 49 51 60 60 64 65 58 38 30 36 44 49 31 31 18 21 28 31 37 40 47 47 42 44 54 62 65 62 59 59
40 30 20 11 7 4 6 8 8 20 30 39 44 46 52 58 63 63 59 49 32 29 32 36 47 38 18 19 26 34 36 44 47 46 45 52 62 68 63 55 56 57 57
33 24 17 16 13 4 3 10 19 26 32 40 41 46 53 60 61 61 56 43 26 27 40 42 27 12 17 25 30 37 45 47 50 52 58 66 66 63 56 54 55 59 50
27 22 21 22 11 4 26 16 22 27 33 37 39 45 53 60 64 61 53 41 34 35 26 21 17 18 26 30 37 46 48 49 50 59 64 65 62 59 56 55 56 49 55
27 24 22 17 13 24 15 20 26 30 34 38 39 44 53 62 60 57 52 39 31 25 24 20 19 26 34 34 42 47 49 53 62 64 63 61 60 52 52 53 55 60 57
27 25 23 19 22 20 20 25 27 32 37 42 44 45 56 56 55 57 45 29 21 24 25 21 27 35 38 38 41 49 54 60 65 63 62 62 58 56 50 60 51 43 47
28 29 28 19 21 25 24 26 31 37 43 47 41 47 54 52 59 48 37 26 21 26 30 32 38 40 30 39 47 50 58 60 56 56 57 56 51 48 45 40 37 42 40
29 30 26 23 27 26 25 29 35 42 46 42 43 51 47 54 57 45 33 29 28 33 35 35 27 25 41 45 48 56 54 51 52 49 43 44 42 38 34 46 47 40 37
26 23 21 24 27 27 28 34 41 44 39 44 48 45 44 55 51 40 32 32 33 36 31 25 27 44 36 44 52 50 48 49 47 40 38 38 37 36 39 44 46 41 35
28 25 25 31 30 26 31 39 43 41 47 42 45 45 45 50 45 34 30 26 32 29 30 31 31 30 38 45 44 41 43 45 44 39 38 34 36 35 37 38 43 37 40
30 26 30 28 24 28 36 40 44 45 42 43 47 46 45 47 41 35 31 33 33 28 25 25 27 34 39 39 37 38 40 41 43 40 41 36 35 37 34 33 32 35 40
28 28 25 20 25 31 39 44 45 44 46 50 53 50 48 44 38 36 33 34 29 25 21 25 31 35 34 34 35 35 36 36 39 38 37 36 39 41 38 31 28 31 33
26 18 15 22 29 35 41 46 44 48 52 54 53 51 44 38 35 31 31 31 27 22 25 35 36 31 28 30 33 32 33 36 38 36 35 35 39 39 35 28 27 30 30
12 18 22 30 35 37 40 42 46 52 56 53 48 46 36 31 33 26 28 24 19 26 36 37 31 23 24 27 31 31 32 35 37 37 33 31 34 35 34 32 26 27 27
18 20 27 33 37 40 42 45 51 57 54 50 46 37 32 35 40 27 20 19 24 33 36 27 23 22 22 23 27 29 31 34 36 34 33 29 33 36 37 36 31 28 24
17 23 28 34 38 42 45 49 53 46 48 49 40 36 33 31 39 25 23 23 28 37 29 24 24 23 21 21 24 25 28 31 33 31 32 33 35 38 39 40 38 34 27
Wind_Direction_850mb
120 131 152 178 184 182 201 216 243 283 114 119 146 135 349 325 293 309 321 321 322 321 311 312 312 314 305 301 301 302 303 304 308 312 305 305 305 296 294 287 291 292 292
104 108 110 109 110 99 84 81 77 80 95 143 182 331 342 354 328 315 306 306 312 308 304 302 299 302 312 318 316 316 322 327 327 325 324 312 304 275 275 285 296 295 295
120 114 107 94 87 85 82 90 100 101 89 75 43 11 1 335 305 297 299 300 295 291 292 290 297 316 324 322 321 319 321 324 327 322 324 314 290 304 306 293 293 296 294
120 116 108 107 107 106 100 93 90 77 37 359 342 334 322 302 295 294 293 291 291 293 299 315 318 314 312 313 311 322 327 326 323 315 305 296 298 311 306 295 296 301 296
131 118 118 120 119 114 113 109 91 39 6 345 332 331 327 312 307 306 298 302 319 321 320 320 312 317 315 308 306 315 321 321 320 316 313 310 309 311 297 307 314 308 309
139 131 134 132 138 128 118 102 57 348 339 331 323 323 326 336 346 339 326 317 317 320 324 322 314 307 299 319 329 325 322 322 325 324 318 320 327 323 324 313 317 314 311
156 156 155 149 153 140 158 198 224 278 318 319 327 351 350 348 338 327 316 312 320 317 317 304 290 282 288 308 320 329 331 329 337 336 329 327 325 323 324 323 325 320 312
179 173 166 159 168 160 151 153 280 315 319 329 342 336 330 328 328 324 319 315 313 314 312 304 281 291 293 298 331 321 318 323 333 332 328 325 326 322 321 319 317 311 306
176 167 159 159 155 153 153 294 314 322 337 347 340 340 341 335 331 326 322 317 314 313 303 273 261 286 296 299 307 313 319 315 322 322 321 317 317 302 299 300 295 303 305
167 164 159 157 156 168 325 328 326 328 337 338 333 335 336 333 332 330 327 326 322 303 270 248 278 288 304 309 314 307 316 311 312 318 318 311 307 296 298 300 299 298 294
170 164 161 160 169 225 316 313 309 327 333 335 338 340 341 342 339 335 334 336 332 294 275 299 316 312 310 316 313 314 312 315 315 320 315 304 301 305 306 305 302 299 298
160 161 163 181 204 291 288 324 330 329 333 339 342 344 343 344 342 340 339 341 337 313 304 299 309 304 285 315 316 322 317 320 317 315 309 308 306 307 309 306 303 303 304
163 171 190 203 196 213 289 315 318 326 332 339 343 345 342 342 341 341 339 334 319 298 303 299 293 273 304 311 317 322 321 319 317 313 307 306 309 310 308 303 301 306 304
180 196 197 195 203 244 299 293 314 321 330 338 339 337 338 341 340 338 335 322 297 292 297 282 273 286 306 303 312 322 317 311 306 305 304 305 306 305 303 304 305 303 301
199 209 206 211 272 289 264 298 310 320 327 330 329 330 336 337 336 336 331 319 307 298 298 289 273 294 312 295 312 310 306 307 308 306 303 303 303 302 294 300 297 300 298
214 217 216 236 267 244 282 298 310 317 320 323 325 325 329 332 334 331 327 318 324 319 291 279 298 301 298 305 309 309 310 311 308 308 308 306 305 304 299 297 300 295 291
220 223 225 252 260 261 287 300 306 311 315 315 312 320 325 330 332 325 323 311 296 326 282 280 300 294 293 311 311 311 312 313 313 311 309 310 310 308 310 316 317 302 301
227 223 236 259 259 269 286 291 299 307 305 301 311 318 322 329 330 320 312 302 290 303 305 306 292 298 313 309 313 314 318 320 321 322 321 320 320 326 326 326 316 308 304
233 239 251 257 246 264 273 289 302 300 298 306 312 316 319 326 327 319 314 310 292 292 298 299 299 306 307 314 318 322 326 329 332 331 330 328 326 330 329 319 321 320 318
224 235 249 237 256 267 285 297 302 300 307 308 310 311 315 321 320 316 307 302 310 302 294 301 303 303 313 319 325 329 334 335 339 340 337 332 330 338 330 323 318 318 321
227 233 238 243 264 286 298 302 301 308 307 308 309 308 307 312 309 309 304 302 301 297 292 288 298 310 317 324 330 337 342 344 344 340 338 335 338 334 328 322 325 321 314
211 230 234 260 291 304 303 304 309 312 312 310 309 306 303 297 296 299 300 304 296 293 277 293 307 314 321 328 336 342 345 351 345 344 345 344 341 339 336 329 328 322 325
205 222 259 292 304 305 306 309 312 312 312 311 309 309 300 285 280 291 300 302 289 272 291 305 308 312 319 327 337 339 348 354 350 348 349 348 346 344 342 337 335 336 339
261 259 289 301 307 310 311 309 312 312 313 312 307 311 298 285 283 286 302 295 280 298 306 305 300 305 315 324 335 337 351 351 354 353 350 348 351 350 348 344 337 340 346
246 284 299 307 315 316 314 311 311 313 312 312 307 304 294 283 284 271 286 286 300 318 312 294 290 300 308 318 330 339 347 347 350 353 354 353 355 359 1 1 355 354 353
281 293 306 313 317 317 317 316 315 311 311 315 315 312 290 279 279 254 252 282 305 325 316 293 288 292 298 311 327 338 342 344 346 349 354 356 357 359 1 2 3 2 3